sat.trackr.live / text

‹ back to catalog

STARLINK-35470

NORAD 66430 · 2025-259J

PAYLOAD ACTIVE UNKNOWN

§ Identity

Operator
Country
US
Launch date
2025-11-11
Launch site
AFETR
Launch vehicle
Mass (kg)
RCS (m²)

Purposes: comms

External: N2YO · Heavens-Above · Gunter

§ Orbital elements

Epoch: 2026-05-24T20:46:56.796096Z

Period
94.27 min
Inclination
43.0043°
Eccentricity
0.0001114
Mean motion
15.27601083 rev/d
Perigee alt
482.2 km
Apogee alt
483.8 km
Semi-major
6,861.1 km
B*
3.4811e-4
RAAN
203.9542°
Arg perigee
291.2732°
Mean anomaly
68.8000°
Rev number
3,114

§ Raw data

STARLINK-354701 66430U 25259J   26144.86593514  .00009335  00000+0  34811-3 0  99992 66430  43.0043 203.9542 0001114 291.2732  68.8000 15.27601083 31147

JSON: /api/v1/satellites/66430 · /tle

For live sub-satellite position, see the globe view (requires WebGL).

§ Visibility from observer

Set your observer location to see the next 7 days of passes ≥ 10°. The values pass through the URL so the page stays shareable.

No JS? Fill the form by hand. The geolocation button needs JavaScript.